Zurück zum Katalog

THOR ABLESTAR DEB

AktivLEO
NORAD 48813·DEBRIS·🇺🇸 United States

Gestartet Jun 29, 1961 von Cape Canaveral Space Force Station

Loading…

Nächste Überflüge (nächste 24 Stunden)

TLE

AktuellSource: Space-Track

Epoche: Sep 13, 2026, 11:11 UTC

1 48813U 61015MR  26256.46614544  .00001535  00000-0  24685-2 0  9993
2 48813  66.6422 286.6907 0464533 227.3209 128.7815 13.15126420612680

Verfolge THOR ABLESTAR DEB in Echtzeit mit AllMySat

Download on the App Store